Waseca, MN

5:26 AM CDT on August 17, 2017 (GMT -0500)
Waseca Municipal

Weather History for KACQ - December, 2011

Change the Weather History Date:

Monday, December 26, 2011

  Actual Average Record
Temperature  
Mean Temperature 35 °F -  
Max Temperature 44 °F 20 °F 56 °F (1936)
Min Temperature 26 °F 2 °F -24 °F (1990)
Degree Days  
Heating Degree Days 30    
Moisture  
Dew Point 21 °F    
Average Humidity 57    
Maximum Humidity 74    
Minimum Humidity 39    
Precipitation  
Precipitation 0.00 in - - ()
Sea Level Pressure  
Sea Level Pressure 29.93 in    
Wind  
Wind Speed 16 mph (SSW)    
Max Wind Speed 37 mph    
Max Gust Speed 46 mph    
Visibility 10 miles    
Events      
Averages and records for this station are not official NWS values.
T = Trace of Precipitation, MM = Missing Value Source: NWS Daily Summary

Daily Weather History Graph

Daily Weather History Graph

Search for Another Location

Airport or City:

Trip Planner

Search our weather history database for the weather conditions in past years. The results will help you decide how hot, cold, wet, or windy it might be!

Date:

Astronomy

Dec. 26, 2011 Rise Set
Actual Time 7:47 AM CST 4:41 PM CST
Civil Twilight 7:14 AM CST 5:14 PM CST
Nautical Twilight 6:38 AM CST 5:51 PM CST
Astronomical Twilight 6:03 AM CST 6:26 PM CST
Moon 9:04 AM CST (12/26) 7:14 PM CST (12/26)
Length of Visible Light 9h 59m
Length of Day
8h 53m
Waxing Crescent, 5% of the Moon is Illuminated
Dec 26
Waxing Crescent
Jan 1
First Quarter
Jan 9
Full
Jan 16
Last Quarter
Jan 23
New

Hourly Weather History & Observations

Time (CST) Temp. Windchill Dew Point Humidity Pressure Visibility Wind Dir Wind Speed Gust Speed Precip Events Conditions
12:17 AM 26.6 °F 17.5 °F 19.4 °F 74% 30.19 in 10.0 mi South 9.2 mph - N/A   Clear
12:36 AM 26.6 °F 16.8 °F 19.4 °F 74% 30.18 in 10.0 mi South 10.4 mph - N/A   Clear
12:57 AM 26.6 °F 17.5 °F 19.4 °F 74% 30.17 in 10.0 mi South 9.2 mph - N/A   Clear
1:17 AM 26.6 °F 17.5 °F 19.4 °F 74% 30.16 in 10.0 mi South 9.2 mph - N/A   Clear
1:37 AM 26.6 °F 20.0 °F 17.6 °F 69% 30.15 in 10.0 mi South 5.8 mph - N/A   Clear
1:57 AM 26.6 °F 18.2 °F 19.4 °F 74% 30.14 in 10.0 mi South 8.1 mph - N/A   Clear
2:37 AM 28.4 °F 18.5 °F 19.4 °F 69% 30.10 in 10.0 mi South 11.5 mph - N/A   Clear
2:57 AM 30.2 °F 20.8 °F 21.2 °F 69% 30.10 in 10.0 mi South 11.5 mph - N/A   Clear
3:16 AM 30.2 °F 20.8 °F 21.2 °F 69% 30.09 in 10.0 mi South 11.5 mph - N/A   Clear
3:37 AM 30.2 °F 20.2 °F 21.2 °F 69% 30.09 in 10.0 mi South 12.7 mph - N/A   Clear
3:57 AM 28.4 °F 18.0 °F 19.4 °F 69% 30.09 in 10.0 mi South 12.7 mph - N/A   Clear
4:17 AM 28.4 °F 18.0 °F 19.4 °F 69% 30.08 in 10.0 mi South 12.7 mph - N/A   Clear
4:36 AM 30.2 °F 20.2 °F 21.2 °F 69% 30.07 in 10.0 mi South 12.7 mph - N/A   Clear
4:57 AM 30.2 °F 19.8 °F 21.2 °F 69% 30.05 in 10.0 mi South 13.8 mph - N/A   Clear
5:17 AM 30.2 °F 19.3 °F 21.2 °F 69% 30.04 in 10.0 mi South 15.0 mph - N/A   Clear
5:37 AM 30.2 °F 19.8 °F 21.2 °F 69% 30.03 in 10.0 mi South 13.8 mph - N/A   Clear
5:57 AM 30.2 °F 19.3 °F 21.2 °F 69% 30.01 in 10.0 mi South 15.0 mph - N/A   Clear
6:17 AM 32.0 °F 20.8 °F 23.0 °F 69% 30.01 in 10.0 mi South 17.3 mph - N/A   Clear
6:37 AM 32.0 °F 20.8 °F 23.0 °F 69% 29.99 in 10.0 mi South 17.3 mph - N/A   Clear
6:57 AM 30.2 °F 19.3 °F 21.2 °F 69% 29.98 in 10.0 mi South 15.0 mph - N/A   Clear
7:16 AM 30.2 °F 18.5 °F 21.2 °F 69% 29.96 in 10.0 mi South 17.3 mph - N/A   Clear
7:37 AM 32.0 °F 20.8 °F 23.0 °F 69% 29.95 in 10.0 mi South 17.3 mph 24.2 mph N/A   Clear
7:57 AM 32.0 °F 20.5 °F 23.0 °F 69% 29.93 in 10.0 mi South 18.4 mph 23.0 mph N/A   Clear
8:17 AM 32.0 °F 20.5 °F 23.0 °F 69% 29.93 in 10.0 mi South 18.4 mph 24.2 mph N/A   Clear
8:37 AM 32.0 °F 19.8 °F 21.2 °F 64% 29.92 in 10.0 mi South 20.7 mph 27.6 mph N/A   Clear
8:57 AM 33.8 °F 20.8 °F 21.2 °F 60% 29.91 in 10.0 mi South 26.5 mph 31.1 mph N/A   Clear
9:16 AM 35.6 °F 22.7 °F 23.0 °F 60% 29.91 in 10.0 mi South 28.8 mph 35.7 mph N/A   Clear
9:57 AM 37.4 °F 25.4 °F 21.2 °F 52% 29.91 in 10.0 mi SSW 27.6 mph 42.6 mph N/A   Clear
10:17 AM 39.2 °F 27.8 °F 21.2 °F 49% 29.90 in 10.0 mi SSW 27.6 mph 35.7 mph N/A   Clear
10:37 AM 39.2 °F 27.6 °F 21.2 °F 49% 29.90 in 10.0 mi SSW 28.8 mph 38.0 mph N/A   Clear
10:57 AM 41.0 °F 30.0 °F 21.2 °F 45% 29.88 in 10.0 mi SSW 28.8 mph 40.3 mph N/A   Clear
11:17 AM 42.8 °F 32.1 °F 21.2 °F 42% 29.86 in 10.0 mi SSW 31.1 mph 43.7 mph N/A   Clear
11:37 AM 42.8 °F 31.9 °F 21.2 °F 42% 29.83 in 10.0 mi SSW 32.2 mph 41.4 mph N/A   Clear
11:57 AM 42.8 °F 32.7 °F 21.2 °F 42% 29.82 in 10.0 mi SSW 27.6 mph 39.1 mph N/A   Clear
12:17 PM 44.6 °F 34.2 °F 21.2 °F 39% 29.79 in 10.0 mi SSW 33.4 mph 41.4 mph N/A   Clear
12:37 PM 44.6 °F 33.8 °F 21.2 °F 39% 29.78 in 10.0 mi SSW 36.8 mph 46.0 mph N/A   Clear
12:57 PM 44.6 °F 34.6 °F 21.2 °F 39% 29.78 in 10.0 mi SSW 31.1 mph 40.3 mph N/A   Clear
1:17 PM 44.6 °F 35.5 °F 21.2 °F 39% 29.78 in 10.0 mi SSW 25.3 mph 40.3 mph N/A   Scattered Clouds
1:37 PM 44.6 °F 35.1 °F 21.2 °F 39% 29.78 in 10.0 mi SW 27.6 mph 40.3 mph N/A   Scattered Clouds
1:57 PM 44.6 °F 35.3 °F 21.2 °F 39% 29.79 in 10.0 mi SW 26.5 mph 39.1 mph N/A   Scattered Clouds
2:17 PM 44.6 °F 35.9 °F 21.2 °F 39% 29.79 in 10.0 mi SW 23.0 mph 31.1 mph N/A   Scattered Clouds
2:37 PM 44.6 °F 36.1 °F 21.2 °F 39% 29.78 in 10.0 mi SW 21.9 mph 33.4 mph N/A   Mostly Cloudy
2:57 PM 44.6 °F 36.4 °F 21.2 °F 39% 29.78 in 10.0 mi SW 20.7 mph 29.9 mph N/A   Overcast
3:17 PM 44.6 °F 36.4 °F 21.2 °F 39% 29.78 in 10.0 mi SW 20.7 mph 31.1 mph N/A   Scattered Clouds
3:37 PM 44.6 °F 36.9 °F 21.2 °F 39% 29.78 in 10.0 mi SW 18.4 mph - N/A   Clear
3:57 PM 44.6 °F 36.9 °F 21.2 °F 39% 29.76 in 10.0 mi SSW 18.4 mph 21.9 mph N/A   Clear
4:17 PM 42.8 °F 35.4 °F 21.2 °F 42% 29.75 in 10.0 mi SSW 15.0 mph - N/A   Clear
4:37 PM 42.8 °F 35.4 °F 21.2 °F 42% 29.77 in 10.0 mi SW 15.0 mph - N/A   Clear
4:57 PM 41.0 °F 33.9 °F 23.0 °F 49% 29.76 in 10.0 mi SSW 12.7 mph - N/A   Clear
5:37 PM 39.2 °F 31.6 °F 23.0 °F 52% 29.77 in 10.0 mi SSW 12.7 mph - N/A   Clear
5:57 PM 39.2 °F 31.6 °F 23.0 °F 52% 29.78 in 10.0 mi SSW 12.7 mph - N/A   Clear
6:17 PM 39.2 °F 30.8 °F 23.0 °F 52% 29.78 in 10.0 mi SSW 15.0 mph - N/A   Clear
6:57 PM 37.4 °F 28.5 °F 23.0 °F 56% 29.78 in 10.0 mi SSW 15.0 mph - N/A   Clear
7:17 PM 37.4 °F 28.5 °F 24.8 °F 60% 29.78 in 10.0 mi SSW 15.0 mph - N/A   Clear
7:37 PM 37.4 °F 28.9 °F 23.0 °F 56% 29.78 in 10.0 mi SSW 13.8 mph - N/A   Clear
7:57 PM 35.6 °F 26.2 °F 23.0 °F 60% 29.77 in 10.0 mi SSW 15.0 mph - N/A   Clear
8:17 PM 37.4 °F 29.3 °F 23.0 °F 56% 29.77 in 10.0 mi SSW 12.7 mph - N/A   Mostly Cloudy
8:37 PM 39.2 °F 31.6 °F 24.8 °F 56% 29.76 in 10.0 mi SSW 12.7 mph - N/A   Overcast
8:57 PM 39.2 °F 31.6 °F 24.8 °F 56% 29.76 in 10.0 mi SSW 12.7 mph - N/A   Overcast
9:17 PM 39.2 °F 31.2 °F 24.8 °F 56% 29.76 in 10.0 mi SW 13.8 mph 19.6 mph N/A   Overcast
9:37 PM 41.0 °F 33.9 °F 23.0 °F 49% 29.76 in 10.0 mi SW 12.7 mph - N/A   Overcast
9:57 PM 39.2 °F 30.8 °F 23.0 °F 52% 29.76 in 10.0 mi SW 15.0 mph 20.7 mph N/A   Overcast
10:16 PM 39.2 °F 32.0 °F 23.0 °F 52% 29.75 in 10.0 mi SW 11.5 mph - N/A   Overcast
10:37 PM 39.2 °F 32.5 °F 23.0 °F 52% 29.75 in 10.0 mi WSW 10.4 mph - N/A   Overcast
10:57 PM 39.2 °F 33.0 °F 24.8 °F 56% 29.75 in 10.0 mi West 9.2 mph - N/A   Overcast
11:16 PM 39.2 °F 32.0 °F 26.6 °F 61% 29.75 in 10.0 mi West 11.5 mph - N/A   Overcast
11:37 PM 39.2 °F 30.2 °F 28.4 °F 65% 29.75 in 10.0 mi West 17.3 mph 23.0 mph N/A   Scattered Clouds
11:57 PM 37.4 °F 27.5 °F 28.4 °F 70% 29.74 in 10.0 mi WNW 18.4 mph 23.0 mph N/A   Clear